Weather History for Grand Canyon, AZ

Change the Weather History Date:

Sunday, November 11, 2012

  Actual Average Record
Temperature  
Mean Temperature 20 °F -  
Max Temperature 37 °F 50 °F 68 °F (1999)
Min Temperature 3 °F 21 °F 3 °F (2012)
Degree Days  
Heating Degree Days 45    
Moisture  
Dew Point 1 °F    
Average Humidity 56    
Maximum Humidity 80    
Minimum Humidity 21    
Precipitation  
Precipitation 0.00 in - - ()
Sea Level Pressure  
Sea Level Pressure 30.30 in    
Wind  
Wind Speed 1 mph (NW)    
Max Wind Speed 10 mph    
Max Gust Speed 16 mph    
Visibility 9 miles    
Events Snow    
Averages and records for this station are not official NWS values.
T = Trace of Precipitation, MM = Missing Value Source: NWS Daily Summary

Daily Weather History Graph

Daily Weather History Graph

Search for Another Location

Airport:

Trip Planner

Search our weather history database for the weather conditions in past years. The results will help you decide how hot, cold, wet, or windy it might be!

Date:

Astronomy

Nov. 11, 2012 Rise Set
Actual Time 7:01 AM MST 5:23 PM MST
Civil Twilight 6:34 AM MST 5:50 PM MST
Nautical Twilight 6:03 AM MST 6:21 PM MST
Astronomical Twilight 5:33 AM MST 6:51 PM MST
Moon 4:23 AM MST (11/11) 3:46 PM MST (11/11)
Length of Visible Light 11h 16m
Length of Day
10h 21m
Waning Crescent, 7% of the Moon is Illuminated
Nov 11
Waning Crescent
Nov 13
New
Nov 20
First Quarter
Nov 28
Full
Dec 6
Last Quarter

Hourly Weather History & Observations

Time (MST) Temp. Windchill Dew Point Humidity Pressure Visibility Wind Dir Wind Speed Gust Speed Precip Events Conditions
12:27 AM 12.2 °F - 6.8 °F 79% 30.01 in 2.5 mi Calm Calm - 0.00 in Snow Light Snow
12:33 AM 12.2 °F 6.1 °F 5.0 °F 73% 30.01 in 3.0 mi SW 3.5 mph - 0.00 in Snow Light Snow
12:54 AM 10.0 °F - 3.9 °F 76% 30.09 in 10.0 mi Calm Calm - 0.00 in   Partly Cloudy
1:54 AM 8.1 °F - 3.0 °F 80% 30.12 in 10.0 mi Calm Calm - N/A   Clear
2:54 AM 3.9 °F - -0.9 °F 80% 30.15 in 10.0 mi Calm Calm - N/A   Clear
3:54 AM 8.1 °F - 3.0 °F 80% 30.16 in 10.0 mi Calm Calm - N/A   Overcast
4:54 AM 6.1 °F - 1.0 °F 80% 30.20 in 10.0 mi Calm Calm - N/A   Clear
5:54 AM 3.9 °F - -2.0 °F 76% 30.23 in 10.0 mi Calm Calm - N/A   Clear
6:54 AM 3.0 °F - -2.0 °F 80% 30.27 in 10.0 mi Calm Calm - N/A   Partly Cloudy
7:54 AM 9.0 °F - 3.0 °F 77% 30.30 in 10.0 mi Calm Calm - N/A   Clear
8:54 AM 23.0 °F - 12.0 °F 63% 30.29 in 10.0 mi Calm Calm - N/A   Clear
11:54 AM 34.0 °F 26.0 °F 1.0 °F 25% 30.30 in 10.0 mi West 10.4 mph 16.1 mph N/A   Clear
12:54 PM 35.1 °F 31.0 °F -2.0 °F 21% 30.30 in 10.0 mi Variable 4.6 mph - N/A   Clear
1:54 PM 36.0 °F - -0.9 °F 21% 30.30 in 10.0 mi Calm Calm - N/A   Clear
2:54 PM 37.0 °F 31.0 °F 1.9 °F 23% 30.33 in 10.0 mi WNW 8.1 mph - N/A   Clear
3:54 PM 37.0 °F 33.3 °F 3.0 °F 24% 30.32 in 10.0 mi Variable 4.6 mph - N/A   Clear
4:54 PM 34.0 °F 29.8 °F 3.0 °F 27% 30.38 in 10.0 mi NNW 4.6 mph - N/A   Clear
5:54 PM 24.1 °F - 3.0 °F 40% 30.45 in 10.0 mi Calm Calm - N/A   Clear
6:54 PM 17.1 °F - -0.0 °F 47% 30.51 in 10.0 mi Calm Calm - N/A   Clear
7:54 PM 14.0 °F 8.2 °F -0.0 °F 54% 30.52 in 10.0 mi NE 3.5 mph - N/A   Clear
8:54 PM 12.9 °F - -0.0 °F 56% 30.49 in 10.0 mi Calm Calm - N/A   Clear
9:54 PM 14.0 °F 8.2 °F -0.9 °F 52% 30.46 in 10.0 mi ENE 3.5 mph - N/A   Clear
10:54 PM 10.0 °F - -2.9 °F 56% 30.48 in 10.0 mi Calm Calm - N/A   Clear
11:54 PM 9.0 °F - -2.9 °F 59% 30.48 in 10.0 mi Calm Calm - N/A   Clear